DELTA 1 DEB, 42589

Orbit data source: Space-Track

DELTA 1 DEB, 42589 is space debris in SSO originally from a launch on Tue, 06 Nov 1973 UTC launched from the Air Force Western Test Range (AFWTR). Debris objects in space refer to the collection of defunct objects orbiting the Earth. Examples of debris include non-operational satellites, rocket bodies, and fragments generated from explosions, collisions, or faulty payload assembly.

Loading next visibility...
Identifier
42589, 1973-086JD
Orbit
SSO
Country
Flag of USUS
Related business
Manufacturer
Unknown
Mission
Spacecraft
Bus & Motor
Unknown
Mass
Unknown
Launch date (UTC)
1973-11-06 (52 years ago)
Launch vehicle
Unknown
Launch site
Air Force Western Test Range (AFWTR)
Object type
Payload
Rocket body
Debris
Shape & HBR
Unknown shape, 0.1 m
Radar Cross Section
Small (<0.1 m²)

Expand to show TLE details & history
Last TLE update: 4 weeks ago

TLE from 4 weeks ago
0 DELTA 1 DEB
1 42589U 73086JD  25266.10369758  .00000245  00000-0  71360-3 0  9993
2 42589 102.5514  32.5241 0317275  89.3375 274.4062 13.06531119564993
Epoch: 2025-09-23T02:29Z
TLE epoch observation values (Epoch: 2025-09-23T02:29:19.470Z)
Latitude
-0.00009°
Longitude
-7.00534°
Altitude
1,228.308 km
Speed
7.246 km/s
True Right ascension
02h 10m 05s
True Declination
0° 00' 00"
Sunlit
Object was in full shadow at epoch
Visualization orbit readout
Latitude
Unknown
Longitude
Unknown
Altitude
Unknown
Speed
Unknown
Apparent Right ascension
Unknown
Apparent Declination
Unknown
Sunlit
N/A
Visualization observer readout
Local Sidereal Time
13:42:46
Azimuth
Unknown
Elevation
Unknown
Doppler factor
Unknown
Orbital elements
Apogee altitude
1,475.645 km
Perigee altitude
992.609 km
Semi-major axis
7,612.264 km
Eccentricity
0.03173
Inclination
102.5514°
RAAN
32.5241°
Arg. of periapsis
89.3375°
True anomaly
270.7726°
Mean anomaly
274.4062°
Eccentric anomaly
272.59021°
Mean motion
3.26793 °/min
Orbital period
110.16 mins
BSTAR
0.0007136
Loading maneuver chart data...
Computing Atmospheric mass density...
Loading historical data...
Loading historical data...
Loading historical data...
Loading historical data...
Loading historical data...
Loading historical data...
Loading historical data...

Documentation

Showing up to 5 results
|